Location: Berg
(48.4333°N, 13.9167°E)
Time: 14:46:18
(UTC+00:00)

ERS-1 Rocket - Pass Details

Date: 18 September 2020
Orbit: 753 x 757 km, 98.5° (Epoch: 23 October)

Event Time Altitude Azimuth Distance (km) Brightness Sun altitude
Exits shadow 19:17:23 21° 56° (NE) 1,658 4.5 -21.1°
Drops below altitude 10° 19:20:55 10° 12° (NNE) 2,295 5.7 -21.6°
Sets 19:23:42 0° 357° (N) 3,226 6.7 -22.0°
